Location: Crayja
(6.2254°N, 10.6273°W)
Time: 09:01:58
(UTC+00:00)

STARLINK-79 - Pass Details

Date: 17 February 2020
Orbit: 529 x 530 km, 53.0° (Epoch: 09 April)

Event Time Altitude Azimuth Distance (km) Brightness Sun altitude
Exits shadow 05:39:13 49° 232° (SW) 685 3.8 -20.2°
Drops below altitude 10° 05:43:00 10° 161° (SSE) 1,765 6.6 -19.2°
Sets 05:45:16 0° 155° (SSE) 2,655 7.6 -18.7°
